DW8947 Weather Reports


Display with metric or nautical units.
time (UTC)temp
F
wind
direction
speed
MPH
gust
MPH
rain 1hr
in
rain 24hr
in
rain mn
in
humidity
%
barometer
mb
20260509123205 48 243 0.0 0.0 0.00 0.00 0.00 93 1020.8
20260509121205 48 243 0.0 0.0 0.00 0.00 0.00 92 1021.0
20260509120205 48 243 0.0 0.0 0.00 0.00 0.00 92 1021.1
20260509115704 48 243 0.0 0.0 0.00 0.00 0.00 91 1021.1
20260509114205 48 243 0.0 0.0 0.00 0.00 0.00 91 1021.2
20260509110705 49 243 0.0 0.0 0.00 0.00 0.00 91 1021.2
20260509110205 49 243 0.0 0.0 0.00 0.00 0.00 90 1021.3
20260509105705 49 243 0.0 0.0 0.00 0.00 0.00 90 1021.2
20260509105205 49 243 0.0 0.0 0.00 0.00 0.00 90 1021.3
20260509103206 50 243 0.0 0.0 0.00 0.00 0.00 89 1021.3
20260509102705 50 243 0.0 0.0 0.00 0.00 0.00 89 1021.2
20260509095705 49 243 0.0 2.0 0.00 0.00 0.00 88 1021.4
20260509094705 49 243 0.0 0.0 0.00 0.00 0.00 87 1021.5
20260509093705 49 243 0.0 0.0 0.00 0.00 0.00 87 1021.4
20260509092705 49 243 0.0 0.0 0.00 0.00 0.00 87 1021.4
20260509092205 49 243 0.0 0.0 0.00 0.00 0.00 87 1021.5
20260509091704 49 243 0.0 0.0 0.00 0.00 0.00 87 1021.5
20260509090704 49 243 0.0 0.0 0.00 0.00 0.00 87 1021.5
20260509090204 49 243 0.0 0.0 0.00 0.00 0.00 87 1021.5
20260509085705 49 243 0.0 0.0 0.00 0.00 0.00 86 1021.5
20260509085205 49 243 0.0 0.0 0.00 0.00 0.00 86 1021.6
20260509084205 49 243 0.0 0.0 0.00 0.00 0.00 85 1021.7
20260509083205 49 243 0.0 0.0 0.00 0.00 0.00 84 1021.7
20260509082705 49 243 0.0 0.0 0.00 0.00 0.00 84 1021.8
20260509082204 49 243 0.0 0.0 0.00 0.00 0.00 84 1021.7
20260509080204 49 243 0.0 0.0 0.00 0.00 0.00 83 1021.6
20260509075705 49 243 0.0 0.0 0.00 0.00 0.00 83 1021.6
20260509075204 49 243 0.0 0.0 0.00 0.00 0.00 83 1021.6
20260509074205 49 243 0.0 0.0 0.00 0.00 0.00 82 1021.6
20260509073705 49 243 0.0 0.0 0.00 0.00 0.00 82 1021.6
20260509073205 50 243 0.0 0.0 0.00 0.00 0.00 82 1021.6
20260509072705 50 243 0.0 0.0 0.00 0.00 0.00 82 1021.6
20260509072205 50 243 0.0 0.0 0.00 0.00 0.00 82 1021.5
20260509071705 50 243 0.0 0.0 0.00 0.00 0.00 82 1021.5
20260509071205 50 243 0.0 2.0 0.00 0.00 0.00 82 1021.5
20260509070205 51 243 0.0 0.0 0.00 0.00 0.00 82 1021.4
20260509065705 51 243 0.0 2.0 0.00 0.00 0.00 82 1021.4
20260509063705 51 108 0.0 1.0 0.00 0.00 0.00 81 1021.2
20260509062705 51 110 0.0 2.0 0.00 0.00 0.00 81 1021.2
20260509062205 51 110 0.0 2.0 0.00 0.00 0.00 81 1021.1
20260509061705 51 110 0.0 2.0 0.00 0.00 0.00 82 1021.1
20260509060704 51 144 0.0 0.0 0.00 0.00 0.00 82 1021.1
20260509054705 51 189 0.0 2.0 0.00 0.00 0.00 81 1021.0
20260509052704 51 192 0.0 1.0 0.00 0.00 0.00 81 1021.1
20260509052204 52 232 0.0 0.0 0.00 0.00 0.00 80 1021.1
20260509051705 52 232 0.0 2.0 0.00 0.00 0.00 80 1021.1
20260509050705 52 232 0.0 0.0 0.00 0.00 0.00 80 1021.0
20260509045705 52 232 0.0 2.0 0.00 0.00 0.00 80 1021.0
20260509045205 52 220 0.0 2.0 0.00 0.00 0.00 80 1021.0
20260509044705 53 86 0.0 2.0 0.00 0.00 0.00 80 1020.9
20260509043705 53 86 0.0 2.0 0.00 0.00 0.00 80 1020.8
20260509043204 53 86 0.0 2.0 0.00 0.00 0.00 80 1020.8
20260509042704 53 86 0.0 2.0 0.00 0.00 0.00 79 1020.8
20260509040704 54 113 0.0 2.0 0.00 0.00 0.00 78 1020.6
20260509040205 54 113 0.0 2.0 0.00 0.00 0.00 77 1020.6
20260509033205 56 113 0.0 2.0 0.00 0.00 0.00 74 1020.2
20260509032705 56 113 0.0 2.0 0.00 0.00 0.00 74 1020.2
20260509032205 57 113 0.0 0.0 0.00 0.00 0.00 74 1020.1
20260509031205 57 113 0.0 0.0 0.00 0.00 0.00 74 1020.0
20260509030704 57 113 0.0 0.0 0.00 0.00 0.00 74 1020.0
20260509024205 57 127 0.0 2.0 0.00 0.00 0.00 73 1019.7
20260509023704 58 133 0.0 2.0 0.00 0.00 0.00 73 1019.7
20260509022204 58 134 0.0 1.0 0.00 0.00 0.00 72 1019.7
20260509021205 58 130 0.0 2.0 0.00 0.00 0.00 71 1019.6
20260509020704 58 141 0.0 2.0 0.00 0.00 0.00 69 1019.6
20260509012704 59 164 1.0 2.0 0.00 0.00 0.00 66 1019.5
20260509012205 59 140 0.0 1.0 0.00 0.00 0.00 66 1019.5
20260509011704 59 151 0.0 1.0 0.00 0.00 0.00 66 1019.5
20260509011205 59 159 0.0 3.0 0.00 0.00 0.00 65 1019.5
20260509005704 60 160 1.0 2.0 0.00 0.00 0.00 64 1019.6
20260509004204 61 171 0.0 2.0 0.00 0.00 0.00 61 1019.7
20260509003705 61 165 1.0 2.0 0.00 0.00 0.00 62 1019.7
20260509003204 61 184 1.0 2.0 0.00 0.00 0.00 63 1019.7
20260509002205 61 165 1.0 3.0 0.00 0.00 0.00 61 1019.6
20260509001704 61 174 1.0 3.0 0.00 0.00 0.00 61 1019.6
20260509000205 61 195 0.0 2.0 0.00 0.00 0.00 60 1019.6
20260508235705 62 279 1.0 2.0 0.00 0.00 0.00 60 1019.6
20260508233705 62 181 0.0 2.0 0.00 0.00 0.00 59 1019.6
20260508233204 62 134 1.0 2.0 0.00 0.00 0.00 61 1019.5
20260508232705 62 117 1.0 2.0 0.00 0.00 0.00 60 1019.4
20260508224204 62 123 1.0 2.0 0.00 0.00 0.00 58 1019.6
20260508223705 62 157 1.0 2.0 0.00 0.00 0.00 58 1019.7
20260508223205 62 141 1.0 3.0 0.00 0.00 0.00 59 1019.7
20260508214204 61 150 1.0 2.0 0.00 0.00 0.00 65 1019.7
20260508213704 61 206 0.0 2.0 0.00 0.00 0.00 65 1019.7
20260508213204 61 29 0.0 3.0 0.00 0.00 0.00 63 1019.7
20260508212704 61 187 0.0 3.0 0.00 0.00 0.00 64 1019.8
20260508211704 60 14 1.0 2.0 0.00 0.00 0.00 67 1019.6
20260508211204 59 183 1.0 2.0 0.00 0.00 0.00 66 1019.7
20260508210705 59 167 0.0 2.0 0.00 0.00 0.00 67 1019.6
20260508205704 58 234 1.0 2.0 0.00 0.00 0.00 68 1019.7
20260508202705 58 166 0.0 2.0 0.00 0.00 0.00 64 1019.5
20260508202205 58 277 0.0 2.0 0.00 0.00 0.00 65 1019.5
20260508201704 58 320 0.0 2.0 0.00 0.00 0.00 65 1019.5
20260508200705 57 210 0.0 2.0 0.00 0.00 0.00 67 1019.5
20260508200205 57 210 0.0 2.0 0.00 0.00 0.00 69 1019.5
20260508195205 57 273 1.0 1.0 0.00 0.00 0.00 68 1019.4
20260508191705 57 200 0.0 2.0 0.00 0.00 0.00 67 1019.3
20260508191204 57 181 1.0 2.0 0.00 0.00 0.00 66 1019.2
20260508185205 57 219 0.0 2.0 0.00 0.00 0.00 67 1019.0
20260508184705 57 232 0.0 2.0 0.00 0.00 0.00 67 1019.1
20260508184204 56 188 1.0 2.0 0.00 0.00 0.00 67 1019.0
20260508183704 56 231 1.0 2.0 0.00 0.00 0.00 67 1019.1
20260508182704 57 204 0.0 2.0 0.00 0.00 0.00 67 1019.0
20260508182204 57 204 0.0 2.0 0.00 0.00 0.00 66 1018.8
20260508181705 57 208 0.0 2.0 0.00 0.00 0.00 67 1018.7
20260508180704 56 299 0.0 2.0 0.00 0.00 0.00 71 1018.7
20260508175704 56 294 0.0 1.0 0.00 0.00 0.00 72 1018.6
20260508172205 55 280 0.0 2.0 0.00 0.00 0.00 71 1018.2
20260508170705 55 211 0.0 2.0 0.00 0.00 0.00 74 1018.1
20260508170204 55 211 0.0 2.0 0.00 0.00 0.00 73 1018.0
20260508165205 54 154 0.0 2.0 0.00 0.00 0.00 73 1017.9
20260508164704 54 200 0.0 2.0 0.00 0.00 0.00 74 1017.8
20260508163705 53 76 0.0 2.0 0.00 0.00 0.00 78 1017.8
20260508163205 53 34 0.0 2.0 0.00 0.00 0.00 78 1017.8
20260508162705 53 175 0.0 2.0 0.00 0.00 0.00 79 1017.9
20260508162205 53 175 0.0 2.0 0.00 0.00 0.00 78 1017.8
20260508161204 53 207 0.0 2.0 0.00 0.00 0.00 78 1017.5
20260508160705 53 248 0.0 1.0 0.00 0.00 0.00 78 1017.5
20260508160205 53 215 0.0 2.0 0.00 0.00 0.00 77 1017.6
20260508155204 53 183 0.0 2.0 0.00 0.00 0.00 77 1017.5
20260508154204 52 186 0.0 2.0 0.00 0.00 0.00 79 1017.5
20260508151704 52 178 0.0 2.0 0.00 0.00 0.00 81 1017.7
20260508151205 51 184 0.0 1.0 0.00 0.00 0.00 83 1017.5
20260508145204 51 287 0.0 0.0 0.00 0.00 0.00 86 1017.4
20260508144704 51 287 0.0 2.0 0.00 0.00 0.00 86 1017.5
20260508143204 50 287 0.0 1.0 0.00 0.00 0.00 88 1017.2
20260508142704 50 287 0.0 1.0 0.00 0.00 0.00 87 1017.0
20260508135704 50 287 0.0 0.0 0.00 0.00 0.00 89 1016.5
20260508135205 50 287 0.0 0.0 0.00 0.00 0.00 90 1016.4
20260508134204 50 288 0.0 0.0 0.00 0.00 0.00 91 1016.3
20260508133704 50 288 0.0 2.0 0.00 0.00 0.00 91 1016.3
20260508133205 50 288 0.0 0.0 0.00 0.00 0.00 91 1016.1
20260508132704 50 288 0.0 0.0 0.00 0.00 0.00 91 1015.9
20260508131704 50 288 0.0 0.0 0.00 0.00 0.00 91 1016.0
20260508131205 50 288 0.0 0.0 0.00 0.00 0.00 92 1016.0
20260508130704 50 288 0.0 0.0 0.00 0.00 0.00 92 1015.9
20260508124705 50 288 0.0 0.0 0.00 0.00 0.00 92 1015.6